TimePST,TemperatureF,Dew PointF,Humidity,Sea Level PressureIn,VisibilityMPH,Wind Direction,Wind SpeedMPH,Gust SpeedMPH,PrecipitationIn,Events,Conditions,WindDirDegrees,DateUTC
12:52 AM,46.9,6.1,19,30.06,10.0,SE,3.5,-,N/A,,Clear,140,2013-12-28 08:52:00
1:52 AM,46.9,7.0,20,30.06,10.0,Calm,Calm,-,N/A,,Clear,0,2013-12-28 09:52:00
2:52 AM,45.0,7.0,21,30.06,10.0,ENE,3.5,-,N/A,,Clear,60,2013-12-28 10:52:00
3:52 AM,44.1,3.9,19,30.07,10.0,NE,5.8,-,N/A,,Clear,50,2013-12-28 11:52:00
4:52 AM,46.0,3.9,18,30.05,10.0,NE,5.8,-,N/A,,Clear,50,2013-12-28 12:52:00
5:52 AM,45.0,3.0,18,30.06,10.0,NE,5.8,-,N/A,,Clear,40,2013-12-28 13:52:00
6:52 AM,44.1,3.0,18,30.08,10.0,ENE,3.5,-,N/A,,Clear,60,2013-12-28 14:52:00
7:52 AM,43.0,5.0,21,30.11,10.0,NE,8.1,20.7,N/A,,Clear,50,2013-12-28 15:52:00
8:52 AM,45.0,7.0,21,30.10,10.0,East,4.6,-,N/A,,Clear,100,2013-12-28 16:52:00
9:52 AM,48.9,9.0,20,30.09,10.0,Variable,4.6,-,N/A,,Clear,0,2013-12-28 17:52:00
10:52 AM,52.0,10.0,19,30.07,10.0,North,-9999.0,-,N/A,,Clear,0,2013-12-28 18:52:00
11:52 AM,52.0,7.0,16,30.05,10.0,East,10.4,23.0,N/A,,Clear,80,2013-12-28 19:52:00
12:52 PM,54.0,9.0,17,30.04,10.0,Variable,4.6,20.7,N/A,,Clear,0,2013-12-28 20:52:00
1:52 PM,54.0,10.0,17,30.02,10.0,ENE,9.2,20.7,N/A,,Clear,70,2013-12-28 21:52:00
2:52 PM,53.1,12.0,20,30.03,10.0,Variable,5.8,-,N/A,,Clear,0,2013-12-28 22:52:00
3:52 PM,52.0,10.9,19,30.05,10.0,North,-9999.0,-,N/A,,Clear,0,2013-12-28 23:52:00
4:52 PM,48.0,10.9,22,30.05,10.0,ENE,10.4,24.2,N/A,,Clear,70,2013-12-29 00:52:00
5:52 PM,45.0,10.9,25,30.05,10.0,ENE,18.4,34.5,N/A,,Clear,60,2013-12-29 01:52:00
6:52 PM,44.1,12.9,28,30.06,10.0,NE,18.4,35.7,N/A,,Clear,50,2013-12-29 02:52:00
7:52 PM,43.0,14.0,31,30.09,10.0,ENE,17.3,32.2,N/A,,Clear,60,2013-12-29 03:52:00
8:52 PM,43.0,10.9,27,30.06,10.0,ENE,16.1,33.4,N/A,,Clear,70,2013-12-29 04:52:00
9:52 PM,44.1,8.1,23,30.04,10.0,ENE,13.8,34.5,N/A,,Clear,60,2013-12-29 05:52:00
10:52 PM,42.1,12.9,31,30.04,10.0,NE,20.7,41.4,N/A,,Clear,50,2013-12-29 06:52:00
11:52 PM,41.0,15.1,35,30.06,10.0,ENE,18.4,33.4,N/A,,Clear,70,2013-12-29 07:52:00